Miscellaneous Local Product
Issued by NWS Hastings, NE

Home | Current Version | Previous Version | Graphics & Text | Print | Product List | Glossary On
Versions: 1 2 3 4 5 6 7 8 9 10 11 12 13 14 15 16 17 18 19 20 21 22 23 24 25 26 27 28 29 30 31 32 33 34 35 36 37 38 39 40 41 42 43 44 45 46 47 48 49 50
000
AXUS43 KGID 252102
MISGRI

GID CWA HOURLY WEATHER ROUNDUP
NATIONAL WEATHER SERVICE HASTINGS NE
300 PM CST TUE NOV 25 2014

NOTE: "FAIR" INDICATES FEW OR NO CLOUDS BELOW 12,000 FEET WITH NO
SIGNIFICANT WEATHER AND/OR OBSTRUCTIONS TO VISIBILITY.

...SOUTH CENTRAL NEBRASKA...

CITY           SKY/WX    TMP DP  RH WIND       PRES   REMARKS
GRAND ISLAND   CLOUDY    45  22  40 SW16      29.90F
HASTINGS       CLOUDY    45  21  38 SW14G22   29.89F
KEARNEY        CLOUDY    45  19  36 S17       29.88F
ORD            CLOUDY    45  19  35 SW15      29.84F
YORK           CLOUDY    46  25  42 SW14      29.93F
AURORA         CLOUDY    45  24  43 S10       29.90F
LEXINGTON      CLOUDY    46  17  30 SW18G24   29.87F
HOLDREGE       CLOUDY    46  17  31 SW17G23   29.87F
HEBRON         PTSUNNY   48  20  32 SW14      29.97F

...NEBRASKA PANHANDLE...

CITY           SKY/WX    TMP DP  RH WIND       PRES   REMARKS
CHADRON        CLOUDY    50  29  44 NW20      29.81R
ALLIANCE       CLOUDY    45  23  42 NW23G32   29.78R
SCOTTSBLUFF    LGT RAIN  40  32  73 NW29G41   29.84R WCI  29
SIDNEY         CLOUDY    46  21  37 NW31G41   29.82S

...WESTERN AND NORTH CENTRAL NEBRASKA...

CITY           SKY/WX    TMP DP  RH WIND       PRES   REMARKS
VALENTINE      CLOUDY    42  21  43 SW7       29.76F
AINSWORTH      CLOUDY    42  18  37 SW15G21   29.78F
ONEILL         CLOUDY    44  21  40 SW10G17   29.83F
BROKEN BOW     CLOUDY    44  24  45 W24G33    29.84F
IMPERIAL       CLOUDY    49  17  28 W14G21    29.82F
NORTH PLATTE   CLOUDY    43  25  49 SW14      29.83F
MCCOOK         CLOUDY    50  12  21 SW17G23   29.86F

...EASTERN NEBRASKA...

CITY           SKY/WX    TMP DP  RH WIND       PRES   REMARKS
NORFOLK        PTSUNNY   44  26  49 S10       29.88F
SO SIOUX CITY  MOSUNNY   42  25  50 S10       29.94F
TEKAMAH        MOSUNNY   44  26  49 S16       29.97F
COLUMBUS       PTSUNNY   45  25  45 S14G20    29.93F
ALBION         PTSUNNY   44  22  42 S14       29.88F
OMAHA EPPLEY   PTSUNNY   42  22  44 S15       30.01F
OFFUTT AFB     MOSUNNY   44  24  46 S12       29.99F
MILLARD        MOSUNNY   44  26  49 S10       29.99F
LINCOLN        MOSUNNY   48  24  39 SW14      29.97F
NEBRASKA CITY  MOSUNNY   44  20  39 SW13      30.02F
BEATRICE       SUNNY     46  25  43 SW14      29.99F
FALLS CITY     SUNNY     45  23  42 S10       30.04F

...NORTHERN KANSAS...

CITY           SKY/WX    TMP DP  RH WIND       PRES   REMARKS
GOODLAND       PTSUNNY   50  14  23 NW20G25   29.88F
HILL CITY      CLOUDY    50  15  24 SW15G26   29.93F
NORTON         CLOUDY    48  10  21 S17G23    29.89F
PHILLIPSBURG   SUNNY     50  19  29 S12       29.93F
SMITH CENTER   CLOUDY    46  18  31 SW16      29.95F
BELOIT         SUNNY     50  19  29 SW14      29.97F
HAYS           CLOUDY    50  18  27 SW17G23   29.97F
RUSSELL        CLOUDY    49  19  30 SW18      29.96F
CONCORDIA      MOSUNNY   49  21  33 SW15      29.98F
SALINA         MOSUNNY   52  21  29 SW15      30.03F
TOPEKA         SUNNY     48  22  35 SW13      30.09F



USA.gov is the U.S. government's official web portal to all federal, state and local government web resources and services.